Date String (YYYY-MM-DD hh:mm:ss) UTC,Instrument flags,absolute air pressure of the measurement (hPa),sample flow rate (lpm),inlet stack bypass flow (lpm),air temperature of the measurement (°C),ambient temperature measured by the external sensor (°C),aerosol sample conditioner tube jacket temperature (°C),OPC LED temperature (°C),internal box temperature (°C),relative humidity of the measurement (%),span deviation,mass concentration of particles derived from Lorenz-Mie calculation of OPC scattering (μg/m³),mass concentration of particles derived from Lorenz-Mie calculation of OPC scattering (μg/m³),mass concentration of particles derived from Lorenz-Mie calculation of OPC scattering (μg/m³)
DateTimeUTC,F1_M11,P_M11,Q1_M11,Q2_M11,T1_M11,T2_M11,T3_M11,T4_M11,T5_M11,U1_M11,ZSPAN_M11,X0_M11,X2_M11,X1_M11
2024-02-25 12:00:00,SystemResetWarning,0822.7,5.00,000.00,019.5,018.7,000.0,027.8,021.1,06.7,0000.0,0012.64,0003.98,0001.64
2024-02-25 12:01:00,SystemResetWarning,0822.7,5.00,000.00,019.5,018.7,000.0,027.8,021.1,06.6,0000.0,0012.81,0003.97,0001.63
2024-02-25 12:02:00,SystemResetWarning,0822.7,5.00,000.00,019.5,018.7,000.0,027.8,021.1,06.6,0000.0,0012.69,0004.00,0001.63
2024-02-25 12:03:00,SystemResetWarning,0822.8,4.99,000.00,019.5,018.7,000.0,027.8,021.1,06.5,0000.0,0012.62,0004.05,0001.64
2024-02-25 12:04:00,SystemResetWarning,0822.6,4.99,000.00,019.5,018.7,000.0,027.8,021.1,06.6,0000.0,0012.25,0004.03,0001.63
2024-02-25 12:05:00,SystemResetWarning,0822.8,4.99,000.00,019.5,018.7,000.0,027.8,021.1,06.5,0000.0,0012.16,0004.01,0001.60
2024-02-25 12:06:00,SystemResetWarning,0822.8,5.00,000.00,019.5,018.8,000.0,027.8,021.1,06.6,0000.0,0012.28,0003.99,0001.59
2024-02-25 12:07:00,SystemResetWarning,0822.8,5.00,000.00,019.5,018.8,000.0,027.8,021.1,06.6,0000.0,0012.76,0003.91,0001.58
2024-02-25 12:08:00,SystemResetWarning,0823.1,5.00,000.00,019.5,018.8,000.0,027.8,021.1,06.7,0000.0,0012.56,0003.82,0001.57
2024-02-25 12:09:00,SystemResetWarning,0822.7,5.00,000.00,019.5,018.8,000.0,027.8,021.1,06.5,0000.0,0012.51,0003.80,0001.57
2024-02-25 12:10:00,SystemResetWarning,0822.6,5.00,000.00,019.5,018.8,000.0,027.8,021.1,06.6,0000.0,0012.51,0003.80,0001.56
2024-02-25 12:11:00,SystemResetWarning,0822.9,5.00,000.00,019.5,018.8,000.0,027.8,021.1,06.7,0000.0,0012.74,0003.75,0001.56
2024-02-25 12:12:00,SystemResetWarning,0822.8,5.00,000.00,019.5,018.8,000.0,027.8,021.1,06.6,0000.0,0013.49,0003.73,0001.57
2024-02-25 12:13:00,SystemResetWarning,0822.7,4.99,000.00,019.5,018.8,000.0,027.8,021.1,06.4,0000.0,0012.57,0003.70,0001.57
2024-02-25 12:14:00,SystemResetWarning,0822.6,5.00,000.00,019.5,018.7,000.0,027.8,021.1,06.3,0000.0,0011.76,0003.65,0001.57
2024-02-25 12:15:00,SystemResetWarning,0822.8,5.00,000.00,019.5,018.7,000.0,027.8,021.1,06.6,0000.0,0011.69,0003.69,0001.57
2024-02-25 12:16:00,SystemResetWarning,0822.8,4.99,000.00,019.5,018.7,000.0,027.8,021.1,06.6,0000.0,0011.91,0003.72,0001.57
2024-02-25 12:17:00,SystemResetWarning,0822.7,5.00,000.00,019.5,018.7,000.0,027.7,021.1,06.8,0000.0,0012.97,0003.81,0001.60
2024-02-25 12:18:00,SystemResetWarning,0822.7,5.01,000.00,019.5,018.7,000.0,027.7,021.1,06.7,0000.0,0012.57,0003.86,0001.61
2024-02-25 12:19:00,SystemResetWarning,0822.9,5.01,000.00,019.5,018.7,000.0,027.7,021.0,06.6,0000.0,0013.45,0003.92,0001.61
2024-02-25 12:20:00,SystemResetWarning,0822.9,4.99,000.00,019.5,018.7,000.0,027.7,021.0,06.5,0000.0,0014.65,0003.99,0001.61
2024-02-25 12:21:00,SystemResetWarning,0822.9,4.99,000.00,019.5,018.7,000.0,027.7,021.0,06.6,0000.0,0014.88,0003.99,0001.62
2024-02-25 12:22:00,SystemResetWarning,0822.9,4.99,000.00,019.5,018.7,000.0,027.7,021.1,06.7,0000.0,0014.98,0004.01,0001.62
2024-02-25 12:23:00,SystemResetWarning,0822.7,5.02,000.00,019.5,018.7,000.0,027.7,021.0,06.5,0000.0,0014.69,0004.01,0001.63
2024-02-25 12:24:00,SystemResetWarning,0822.7,4.99,000.00,019.5,018.7,000.0,027.7,021.1,06.5,0000.0,0015.30,0004.04,0001.62
2024-02-25 12:25:00,SystemResetWarning,0822.7,4.99,000.00,019.4,018.7,000.0,027.7,021.1,06.7,0000.0,0016.36,0004.08,0001.62
2024-02-25 12:26:00,SystemResetWarning,0822.7,5.01,000.00,019.4,018.7,000.0,027.7,021.1,06.8,0000.0,0016.32,0004.07,0001.63
2024-02-25 12:27:00,SystemResetWarning,0822.6,5.01,000.00,019.4,018.7,000.0,027.7,021.0,06.9,0000.0,0016.56,0004.06,0001.63
2024-02-25 12:28:00,SystemResetWarning,0822.6,5.01,000.00,019.4,018.7,000.0,027.7,021.0,06.4,0000.0,0015.81,0004.02,0001.63
2024-02-25 12:29:00,SystemResetWarning,0822.8,4.99,000.00,019.4,018.7,000.0,027.7,021.0,06.3,0000.0,0015.95,0004.05,0001.62
2024-02-25 12:30:00,SystemResetWarning,0822.8,4.99,000.00,019.4,018.6,000.0,027.7,021.0,06.5,0000.0,0015.03,0004.06,0001.63
2024-02-25 12:31:00,SystemResetWarning,0822.8,4.99,000.00,019.4,018.6,000.0,027.7,021.0,06.6,0000.0,0014.08,0004.05,0001.64
2024-02-25 12:32:00,SystemResetWarning,0822.7,5.01,000.00,019.4,018.6,000.0,027.7,021.0,06.8,0000.0,0014.18,0004.03,0001.62
2024-02-25 12:33:00,SystemResetWarning,0822.8,5.00,000.00,019.4,018.6,000.0,027.7,021.0,06.9,0000.0,0014.02,0004.02,0001.61
2024-02-25 12:34:00,SystemResetWarning,0822.7,5.01,000.00,019.4,018.6,000.0,027.7,021.0,06.6,0000.0,0013.38,0004.01,0001.62
2024-02-25 12:35:00,SystemResetWarning,0822.9,4.99,000.00,019.4,018.6,000.0,027.7,021.0,06.5,0000.0,0013.22,0004.03,0001.62
2024-02-25 12:36:00,SystemResetWarning,0822.9,4.99,000.00,019.4,018.6,000.0,027.7,021.0,06.7,0000.0,0012.43,0004.05,0001.62
2024-02-25 12:37:00,SystemResetWarning,0822.9,5.00,000.00,019.4,018.6,000.0,027.6,021.0,06.9,0000.0,0012.90,0004.05,0001.64
2024-02-25 12:38:00,SystemResetWarning,0823.0,5.00,000.00,019.4,018.6,000.0,027.6,021.0,06.8,0000.0,0012.80,0004.03,0001.65
2024-02-25 12:39:00,SystemResetWarning,0823.1,5.00,000.00,019.4,018.6,000.0,027.6,020.9,06.8,0000.0,0012.60,0004.05,0001.65
2024-02-25 12:40:00,SystemResetWarning,0822.9,5.00,000.00,019.4,018.7,000.0,027.6,021.0,06.7,0000.0,0012.50,0004.02,0001.66
2024-02-25 12:41:00,SystemResetWarning,0823.0,5.00,000.00,019.4,018.7,000.0,027.6,021.0,06.4,0000.0,0012.72,0004.04,0001.68
2024-02-25 12:42:00,SystemResetWarning,0823.1,5.00,000.00,019.4,018.7,000.0,027.6,021.0,06.3,0000.0,0012.87,0004.05,0001.69
2024-02-25 12:43:00,SystemResetWarning,0822.8,5.00,000.00,019.4,018.6,000.0,027.6,021.0,06.3,0000.0,0012.56,0004.08,0001.73
2024-02-25 12:44:00,SystemResetWarning,0823.0,4.99,000.00,019.4,018.6,000.0,027.6,021.0,06.4,0000.0,0013.20,0004.10,0001.75
2024-02-25 12:45:00,SystemResetWarning,0822.8,5.00,000.00,019.4,018.6,000.0,027.6,021.0,06.4,0000.0,0013.80,0004.13,0001.75
2024-02-25 12:46:00,SystemResetWarning,0822.8,5.00,000.00,019.4,018.6,000.0,027.6,021.0,06.4,0000.0,0014.45,0004.09,0001.76
2024-02-25 12:47:00,SystemResetWarning,0822.8,5.00,000.00,019.4,018.6,000.0,027.7,021.0,06.6,0000.0,0014.69,0004.05,0001.75
2024-02-25 12:48:00,SystemResetWarning,0823.0,4.99,000.00,019.4,018.6,000.0,027.7,021.0,06.7,0000.0,0015.08,0004.06,0001.73
2024-02-25 12:49:00,SystemResetWarning,0822.8,5.02,000.00,019.4,018.6,000.0,027.6,021.0,06.7,0000.0,0016.04,0004.11,0001.73
2024-02-25 12:50:00,SystemResetWarning,0822.8,5.00,000.00,019.4,018.6,000.0,027.6,021.0,06.3,0000.0,0016.39,0004.07,0001.72
2024-02-25 12:51:00,SystemResetWarning,0823.3,4.99,000.00,019.4,018.6,000.0,027.6,021.0,06.5,0000.0,0016.74,0004.06,0001.72
2024-02-25 12:52:00,SystemResetWarning,0823.0,5.00,000.00,019.4,018.6,000.0,027.6,021.0,06.6,0000.0,0016.42,0003.98,0001.70
2024-02-25 12:53:00,SystemResetWarning,0822.9,4.99,000.00,019.4,018.6,000.0,027.6,021.0,06.8,0000.0,0016.24,0003.94,0001.67
2024-02-25 12:54:00,SystemResetWarning,0823.1,5.01,000.00,019.4,018.6,000.0,027.6,021.0,06.6,0000.0,0016.00,0003.98,0001.65
2024-02-25 12:55:00,SystemResetWarning,0822.6,5.01,000.00,019.4,018.6,000.0,027.6,021.0,06.7,0000.0,0015.18,0003.96,0001.63
2024-02-25 12:56:00,SystemResetWarning,0822.9,4.99,000.00,019.4,018.6,000.0,027.6,021.0,06.4,0000.0,0015.12,0003.99,0001.63
2024-02-25 12:57:00,SystemResetWarning,0822.8,4.99,000.00,019.3,018.6,000.0,027.6,021.0,06.5,0000.0,0014.41,0004.04,0001.61
2024-02-25 12:58:00,SystemResetWarning,0822.6,5.00,000.00,019.3,018.6,000.0,027.6,020.9,06.6,0000.0,0013.96,0004.08,0001.62
2024-02-25 12:59:00,SystemResetWarning,0822.8,5.00,000.00,019.3,018.6,000.0,027.6,020.9,06.7,0000.0,0013.77,0004.05,0001.61
